| time (UTC) | temp F | wind direction | speed knots | gust knots | rain 1hr in | rain 24hr in | rain mn in | humidity % | barometer mb |
| 20260508184937 | 80 | 0 | 4.3 | 7.8 | 0.00 | 0.05 | 0.05 | 100 | 1008.3 |
| 20260508184434 | 80 | 0 | 4.3 | 7.8 | 0.00 | 0.05 | 0.05 | 100 | 1008.3 |
| 20260508183930 | 80 | 0 | 3.5 | 7.0 | 0.00 | 0.05 | 0.05 | 100 | 1008.3 |
| 20260508183427 | 80 | 0 | 4.3 | 7.0 | 0.00 | 0.05 | 0.05 | 100 | 1008.3 |
| 20260508182922 | 80 | 0 | 5.2 | 9.6 | 0.00 | 0.05 | 0.05 | 100 | 1008.3 |
| 20260508182420 | 80 | 0 | 7.8 | 11.3 | 0.00 | 0.05 | 0.05 | 100 | 1008.3 |
| 20260508181920 | 80 | 0 | 9.6 | 14.8 | 0.00 | 0.05 | 0.05 | 100 | 1008.3 |
| 20260508181418 | 80 | 0 | 5.2 | 7.8 | 0.00 | 0.05 | 0.05 | 100 | 1008.3 |
| 20260508180915 | 80 | 0 | 4.3 | 9.6 | 0.00 | 0.05 | 0.05 | 100 | 1008.3 |
| 20260508180412 | 80 | 0 | 4.3 | 6.1 | 0.00 | 0.05 | 0.05 | 100 | 1008.3 |
| 20260508175908 | 80 | 0 | 5.2 | 9.6 | 0.00 | 0.05 | 0.05 | 100 | 1008.3 |
| 20260508175404 | 80 | 0 | 4.3 | 7.8 | 0.00 | 0.05 | 0.05 | 100 | 1008.3 |
| 20260508174903 | 80 | 0 | 5.2 | 9.6 | 0.00 | 0.05 | 0.05 | 100 | 1008.3 |
| 20260508174359 | 80 | 0 | 3.5 | 6.1 | 0.00 | 0.05 | 0.05 | 100 | 1008.6 |
| 20260508173856 | 80 | 0 | 3.5 | 6.1 | 0.00 | 0.05 | 0.05 | 100 | 1008.6 |
| 20260508173353 | 80 | 0 | 4.3 | 9.6 | 0.00 | 0.05 | 0.05 | 100 | 1008.6 |
| 20260508172849 | 80 | 0 | 4.3 | 9.6 | 0.00 | 0.05 | 0.05 | 100 | 1009.0 |
| 20260508172347 | 80 | 0 | 3.5 | 6.1 | 0.00 | 0.05 | 0.05 | 100 | 1009.0 |
| 20260508171842 | 80 | 0 | 3.5 | 7.8 | 0.00 | 0.05 | 0.05 | 100 | 1009.0 |
| 20260508171339 | 80 | 0 | 5.2 | 9.6 | 0.00 | 0.05 | 0.05 | 100 | 1009.0 |
| 20260508170836 | 80 | 0 | 1.7 | 5.2 | 0.00 | 0.05 | 0.05 | 100 | 1009.0 |
| 20260508170334 | 80 | 0 | 3.5 | 6.1 | 0.00 | 0.05 | 0.05 | 100 | 1009.0 |
| 20260508165830 | 80 | 0 | 2.6 | 7.8 | 0.00 | 0.05 | 0.05 | 100 | 1009.0 |
| 20260508165328 | 80 | 0 | 2.6 | 4.3 | 0.00 | 0.05 | 0.05 | 100 | 1009.0 |
| 20260508164823 | 80 | 0 | 2.6 | 4.3 | 0.00 | 0.05 | 0.05 | 100 | 1009.0 |
| 20260508164320 | 80 | 0 | 3.5 | 8.7 | 0.00 | 0.05 | 0.05 | 100 | 1009.0 |
| 20260508163819 | 80 | 0 | 5.2 | 8.7 | 0.00 | 0.04 | 0.04 | 100 | 1009.0 |
| 20260508163316 | 80 | 0 | 6.1 | 12.2 | 0.00 | 0.04 | 0.04 | 100 | 1009.3 |
| 20260508162811 | 80 | 0 | 4.3 | 8.7 | 0.00 | 0.04 | 0.04 | 100 | 1009.3 |
| 20260508162308 | 80 | 0 | 2.6 | 7.8 | 0.94 | 0.02 | 0.02 | 100 | 1009.3 |
| 20260508161806 | 80 | 0 | 7.8 | 17.4 | 0.00 | 0.02 | 0.02 | 100 | 1009.3 |
| 20260508161303 | 80 | 0 | 2.6 | 5.2 | 0.00 | 0.02 | 0.02 | 100 | 1009.3 |
| 20260508160800 | 80 | 0 | 2.6 | 6.1 | 0.00 | 0.01 | 0.01 | 100 | 1009.3 |
| 20260508160259 | 80 | 0 | 0.9 | 3.5 | 0.00 | 0.01 | 0.01 | 100 | 1009.6 |
| 20260508155755 | 80 | 0 | 2.6 | 7.0 | 0.00 | 0.01 | 0.01 | 100 | 1009.6 |
| 20260508155252 | 80 | 0 | 5.2 | 9.6 | 0.00 | 0.01 | 0.01 | 100 | 1009.6 |
| 20260508154748 | 80 | 0 | 4.3 | 7.0 | 0.00 | 0.00 | 0.00 | 100 | 1009.6 |
| 20260508154246 | 80 | 0 | 2.6 | 5.2 | 0.00 | 0.00 | 0.00 | 100 | 1009.6 |
| 20260508153742 | 80 | 0 | 4.3 | 6.1 | 0.00 | 0.00 | 0.00 | 100 | 1009.6 |
| 20260508153240 | 80 | 0 | 3.5 | 9.6 | 0.00 | 0.00 | 0.00 | 100 | 1009.6 |
| 20260508152736 | 80 | 0 | 6.1 | 11.3 | 0.00 | 0.00 | 0.00 | 100 | 1009.6 |
| 20260508152232 | 80 | 0 | 5.2 | 8.7 | 0.00 | 0.00 | 0.00 | 100 | 1010.0 |
| 20260508151728 | 80 | 0 | 4.3 | 6.1 | 0.00 | 0.00 | 0.00 | 100 | 1010.0 |
| 20260508151226 | 80 | 0 | 5.2 | 8.7 | 0.00 | 0.00 | 0.00 | 100 | 1010.0 |
| 20260508150722 | 80 | 0 | 3.5 | 6.1 | 0.00 | 0.00 | 0.00 | 100 | 1010.0 |
| 20260508150219 | 80 | 0 | 4.3 | 8.7 | 0.00 | 0.00 | 0.00 | 100 | 1010.0 |
| 20260508145715 | 80 | 0 | 3.5 | 6.1 | 0.00 | 0.00 | 0.00 | 100 | 1010.0 |
| 20260508145211 | 80 | 0 | 1.7 | 3.5 | 0.00 | 0.00 | 0.00 | 100 | 1010.3 |
| 20260508144709 | 80 | 0 | 5.2 | 8.7 | 0.00 | 0.00 | 0.00 | 100 | 1010.3 |
| 20260508144206 | 80 | 0 | 2.6 | 4.3 | 0.00 | 0.00 | 0.00 | 100 | 1010.3 |
| 20260508143704 | 80 | 0 | 2.6 | 5.2 | 0.00 | 0.00 | 0.00 | 100 | 1010.7 |
| 20260508143201 | 80 | 0 | 3.5 | 6.1 | 0.00 | 0.00 | 0.00 | 100 | 1010.7 |
| 20260508142657 | 80 | 0 | 3.5 | 7.0 | 0.00 | 0.00 | 0.00 | 100 | 1010.7 |
| 20260508142154 | 80 | 0 | 3.5 | 6.1 | 0.00 | 0.00 | 0.00 | 100 | 1010.7 |
| 20260508141650 | 80 | 0 | 3.5 | 6.1 | 0.00 | 0.00 | 0.00 | 100 | 1010.7 |
| 20260508141148 | 80 | 0 | 1.7 | 4.3 | 0.00 | 0.00 | 0.00 | 100 | 1010.7 |
| 20260508140645 | 80 | 0 | 3.5 | 8.7 | 0.00 | 0.00 | 0.00 | 100 | 1010.7 |
| 20260508140142 | 80 | 0 | 4.3 | 6.1 | 0.00 | 0.00 | 0.00 | 100 | 1010.7 |
| 20260508135637 | 80 | 0 | 3.5 | 7.0 | 0.00 | 0.09 | 0.09 | 100 | 1011.0 |
| 20260508135133 | 80 | 0 | 3.5 | 7.0 | 0.00 | 0.09 | 0.09 | 100 | 1011.0 |
| 20260508134630 | 80 | 0 | 5.2 | 9.6 | 0.00 | 0.09 | 0.09 | 100 | 1011.0 |
| 20260508134127 | 80 | 0 | 4.3 | 9.6 | 0.00 | 0.09 | 0.09 | 100 | 1011.0 |
| 20260508133624 | 80 | 0 | 3.5 | 10.4 | 0.00 | 0.09 | 0.09 | 100 | 1011.0 |
| 20260508133121 | 80 | 0 | 7.0 | 17.4 | 0.00 | 0.09 | 0.09 | 100 | 1011.3 |
| 20260508132619 | 80 | 0 | 2.6 | 6.1 | 0.00 | 0.09 | 0.09 | 100 | 1011.3 |
| 20260508132115 | 80 | 0 | 4.3 | 13.0 | 0.00 | 0.09 | 0.09 | 100 | 1011.3 |
| 20260508131611 | 80 | 0 | 4.3 | 8.7 | 0.00 | 0.09 | 0.09 | 100 | 1011.3 |
| 20260508131108 | 80 | 0 | 3.5 | 7.8 | 0.00 | 0.09 | 0.09 | 100 | 1011.3 |
| 20260508130605 | 80 | 0 | 2.6 | 6.1 | 0.00 | 0.09 | 0.09 | 100 | 1011.3 |
| 20260508125557 | 80 | 0 | 2.6 | 4.3 | 0.00 | 0.09 | 0.09 | 100 | 1011.7 |
| 20260508125055 | 80 | 0 | 2.6 | 5.2 | 0.00 | 0.09 | 0.09 | 100 | 1011.7 |
| 20260508124553 | 80 | 0 | 2.6 | 6.1 | 0.00 | 0.09 | 0.09 | 100 | 1011.7 |
| 20260508124049 | 80 | 0 | 3.5 | 7.0 | 0.00 | 0.09 | 0.09 | 100 | 1011.7 |
| 20260508123548 | 80 | 0 | 3.5 | 8.7 | 0.00 | 0.09 | 0.09 | 100 | 1011.7 |
| 20260508123044 | 80 | 0 | 5.2 | 10.4 | 0.00 | 0.09 | 0.09 | 100 | 1012.0 |
| 20260508122541 | 80 | 0 | 7.0 | 11.3 | 0.47 | 0.08 | 0.08 | 100 | 1011.7 |
| 20260508122038 | 80 | 0 | 6.1 | 9.6 | 0.00 | 0.08 | 0.08 | 100 | 1011.7 |
| 20260508121537 | 80 | 0 | 6.1 | 8.7 | 0.00 | 0.08 | 0.08 | 100 | 1011.7 |
| 20260508121034 | 80 | 0 | 7.8 | 12.2 | 0.00 | 0.08 | 0.08 | 100 | 1011.7 |
| 20260508120531 | 80 | 0 | 4.3 | 11.3 | 0.00 | 0.08 | 0.08 | 100 | 1011.7 |
| 20260508120030 | 80 | 0 | 7.8 | 13.9 | 0.00 | 0.08 | 0.08 | 100 | 1011.7 |
| 20260508115527 | 80 | 0 | 7.8 | 15.6 | 0.00 | 0.08 | 0.08 | 100 | 1011.7 |
| 20260508115023 | 80 | 0 | 6.1 | 13.0 | 0.00 | 0.08 | 0.08 | 100 | 1011.7 |
| 20260508114520 | 80 | 0 | 3.5 | 7.8 | 0.00 | 0.08 | 0.08 | 100 | 1011.7 |
| 20260508114017 | 80 | 0 | 2.6 | 7.8 | 0.00 | 0.08 | 0.08 | 100 | 1011.7 |
| 20260508113514 | 80 | 0 | 2.6 | 6.1 | 0.00 | 0.08 | 0.08 | 100 | 1011.7 |
| 20260508113012 | 80 | 0 | 1.7 | 6.1 | 0.00 | 0.08 | 0.08 | 100 | 1011.7 |
| 20260508112508 | 80 | 0 | 0.9 | 3.5 | 0.00 | 0.08 | 0.08 | 100 | 1011.7 |
| 20260508112005 | 80 | 0 | 2.6 | 5.2 | 0.00 | 0.08 | 0.08 | 100 | 1011.7 |
| 20260508111502 | 80 | 0 | 0.0 | 3.5 | 0.00 | 0.08 | 0.08 | 100 | 1011.7 |
| 20260508110959 | 80 | 0 | 0.9 | 1.7 | 0.00 | 0.08 | 0.08 | 100 | 1011.7 |
| 20260508110457 | 80 | 0 | 0.0 | 2.6 | 0.00 | 0.08 | 0.08 | 100 | 1011.3 |
| 20260508105956 | 80 | 0 | 4.3 | 11.3 | 0.00 | 0.08 | 0.08 | 100 | 1011.3 |
| 20260508105453 | 80 | 0 | 0.0 | 1.7 | 0.00 | 0.08 | 0.08 | 100 | 1011.3 |
| 20260508104950 | 80 | 0 | 1.7 | 4.3 | 0.00 | 0.08 | 0.08 | 100 | 1011.3 |
| 20260508104447 | 80 | 0 | 2.6 | 5.2 | 0.00 | 0.08 | 0.08 | 100 | 1011.3 |
| 20260508103944 | 80 | 0 | 2.6 | 6.1 | 0.00 | 0.08 | 0.08 | 100 | 1011.3 |
| 20260508103441 | 80 | 0 | 7.0 | 13.9 | 0.00 | 0.08 | 0.08 | 100 | 1011.3 |
| 20260508102938 | 80 | 0 | 8.7 | 24.3 | 0.47 | 0.06 | 0.06 | 100 | 1011.3 |
| 20260508102437 | 80 | 0 | 10.4 | 19.1 | 0.00 | 0.05 | 0.05 | 100 | 1011.0 |
| 20260508101933 | 80 | 0 | 6.1 | 10.4 | 0.00 | 0.05 | 0.05 | 100 | 1011.0 |
| 20260508101431 | 80 | 0 | 5.2 | 9.6 | 0.00 | 0.05 | 0.05 | 100 | 1011.0 |
| 20260508100928 | 80 | 0 | 5.2 | 8.7 | 0.00 | 0.05 | 0.05 | 100 | 1011.0 |
| 20260508100426 | 80 | 0 | 4.3 | 7.8 | 0.00 | 0.05 | 0.05 | 100 | 1011.0 |
| 20260508095922 | 80 | 0 | 5.2 | 8.7 | 0.00 | 0.05 | 0.05 | 100 | 1010.7 |
| 20260508095420 | 80 | 0 | 6.1 | 13.0 | 0.00 | 0.05 | 0.05 | 100 | 1010.7 |
| 20260508094916 | 80 | 0 | 5.2 | 9.6 | 0.00 | 0.05 | 0.05 | 100 | 1010.7 |
| 20260508094413 | 80 | 0 | 7.0 | 10.4 | 0.00 | 0.05 | 0.05 | 100 | 1010.7 |
| 20260508093910 | 80 | 0 | 4.3 | 6.1 | 0.00 | 0.05 | 0.05 | 100 | 1010.7 |
| 20260508093408 | 80 | 0 | 6.1 | 9.6 | 0.00 | 0.05 | 0.05 | 100 | 1010.7 |
| 20260508092905 | 80 | 0 | 6.1 | 10.4 | 0.00 | 0.05 | 0.05 | 100 | 1010.7 |
| 20260508092403 | 80 | 0 | 4.3 | 8.7 | 0.00 | 0.05 | 0.05 | 100 | 1010.7 |
| 20260508091901 | 80 | 0 | 5.2 | 8.7 | 0.00 | 0.05 | 0.05 | 100 | 1010.7 |
| 20260508091357 | 80 | 0 | 5.2 | 8.7 | 0.00 | 0.05 | 0.05 | 100 | 1010.3 |
| 20260508090855 | 80 | 0 | 6.1 | 9.6 | 0.00 | 0.05 | 0.05 | 100 | 1010.3 |
| 20260508090353 | 80 | 0 | 7.8 | 11.3 | 0.00 | 0.05 | 0.05 | 100 | 1010.3 |
| 20260508085848 | 80 | 0 | 3.5 | 7.0 | 0.00 | 0.05 | 0.05 | 100 | 1010.3 |
| 20260508085345 | 80 | 0 | 6.1 | 10.4 | 0.00 | 0.05 | 0.05 | 100 | 1010.3 |
| 20260508084842 | 80 | 0 | 4.3 | 9.6 | 0.00 | 0.05 | 0.05 | 100 | 1010.0 |
| 20260508084339 | 80 | 0 | 5.2 | 10.4 | 0.00 | 0.05 | 0.05 | 100 | 1010.0 |
| 20260508083837 | 80 | 0 | 5.2 | 9.6 | 0.00 | 0.05 | 0.05 | 100 | 1010.0 |
| 20260508083334 | 80 | 0 | 6.1 | 9.6 | 0.00 | 0.05 | 0.05 | 100 | 1009.6 |
| 20260508082833 | 80 | 0 | 5.2 | 9.6 | 0.00 | 0.05 | 0.05 | 100 | 1009.6 |
| 20260508082331 | 80 | 0 | 7.0 | 12.2 | 0.00 | 0.05 | 0.05 | 100 | 1009.6 |
| 20260508081829 | 80 | 0 | 5.2 | 7.8 | 0.00 | 0.05 | 0.05 | 100 | 1009.6 |
| 20260508081325 | 80 | 0 | 7.8 | 13.0 | 0.00 | 0.05 | 0.05 | 100 | 1009.6 |
| 20260508080822 | 80 | 0 | 6.1 | 12.2 | 0.00 | 0.05 | 0.05 | 100 | 1009.6 |
| 20260508080320 | 80 | 0 | 7.0 | 11.3 | 0.00 | 0.05 | 0.05 | 100 | 1009.6 |
| 20260508075817 | 80 | 0 | 7.0 | 11.3 | 0.00 | 0.05 | 0.05 | 100 | 1009.6 |
| 20260508075313 | 80 | 0 | 4.3 | 8.7 | 0.00 | 0.05 | 0.05 | 100 | 1009.3 |
| 20260508074812 | 80 | 0 | 4.3 | 8.7 | 0.00 | 0.05 | 0.05 | 100 | 1009.3 |
| 20260508074308 | 80 | 0 | 5.2 | 11.3 | 0.00 | 0.05 | 0.05 | 100 | 1009.3 |
| 20260508073805 | 80 | 0 | 7.0 | 13.0 | 0.00 | 0.05 | 0.05 | 100 | 1009.3 |
| 20260508073303 | 80 | 0 | 11.3 | 15.6 | 0.00 | 0.05 | 0.05 | 100 | 1009.3 |
| 20260508072759 | 80 | 0 | 5.2 | 11.3 | 0.00 | 0.05 | 0.05 | 100 | 1009.3 |
| 20260508072256 | 80 | 0 | 7.0 | 11.3 | 0.00 | 0.05 | 0.05 | 100 | 1009.3 |
| 20260508071753 | 80 | 0 | 2.6 | 5.2 | 0.00 | 0.05 | 0.05 | 100 | 1009.0 |
| 20260508071252 | 80 | 0 | 6.1 | 9.6 | 0.00 | 0.05 | 0.05 | 100 | 1009.0 |
| 20260508070749 | 80 | 0 | 7.8 | 13.0 | 0.00 | 0.05 | 0.05 | 100 | 1009.0 |
| 20260508070248 | 80 | 0 | 7.8 | 13.0 | 0.00 | 0.05 | 0.05 | 100 | 1008.6 |
| 20260508065744 | 80 | 0 | 7.0 | 12.2 | 0.00 | 0.05 | 0.05 | 100 | 1008.6 |
| 20260508065242 | 80 | 0 | 7.8 | 12.2 | 0.00 | 0.05 | 0.05 | 100 | 1008.6 |
| 20260508064740 | 80 | 0 | 7.8 | 13.0 | 0.00 | 0.05 | 0.05 | 100 | 1008.6 |
| 20260508064238 | 80 | 0 | 7.0 | 13.0 | 0.00 | 0.05 | 0.05 | 100 | 1008.6 |
| 20260508063735 | 80 | 0 | 5.2 | 9.6 | 0.00 | 0.05 | 0.05 | 100 | 1008.6 |
| 20260508063233 | 80 | 0 | 6.1 | 12.2 | 0.00 | 0.05 | 0.05 | 100 | 1008.6 |
| 20260508062730 | 80 | 0 | 3.5 | 6.1 | 0.00 | 0.05 | 0.05 | 100 | 1008.6 |
| 20260508062227 | 80 | 0 | 4.3 | 9.6 | 0.00 | 0.05 | 0.05 | 100 | 1008.6 |
| 20260508061724 | 80 | 0 | 5.2 | 11.3 | 0.47 | 0.04 | 0.04 | 100 | 1008.6 |
| 20260508061221 | 80 | 0 | 7.0 | 11.3 | 0.47 | 0.03 | 0.03 | 100 | 1008.3 |
| 20260508060717 | 80 | 0 | 8.7 | 17.4 | 0.00 | 0.03 | 0.03 | 100 | 1008.3 |
| 20260508060215 | 80 | 0 | 9.6 | 13.9 | 0.00 | 0.03 | 0.03 | 100 | 1008.3 |
| 20260508055710 | 80 | 0 | 8.7 | 12.2 | 0.00 | 0.03 | 0.03 | 100 | 1008.3 |
| 20260508055208 | 80 | 0 | 7.8 | 12.2 | 0.00 | 0.03 | 0.03 | 100 | 1008.3 |
| 20260508054704 | 80 | 0 | 9.6 | 13.0 | 0.00 | 0.03 | 0.03 | 100 | 1008.3 |
| 20260508054202 | 80 | 0 | 9.6 | 13.9 | 0.00 | 0.03 | 0.03 | 100 | 1008.3 |
| 20260508053658 | 80 | 0 | 7.8 | 10.4 | 0.00 | 0.03 | 0.03 | 100 | 1008.3 |
| 20260508053156 | 80 | 0 | 7.8 | 12.2 | 0.00 | 0.03 | 0.03 | 100 | 1008.3 |
| 20260508052653 | 80 | 0 | 10.4 | 13.9 | 0.00 | 0.03 | 0.03 | 100 | 1008.3 |
| 20260508052150 | 80 | 0 | 9.6 | 13.0 | 0.00 | 0.03 | 0.03 | 100 | 1008.3 |
| 20260508051646 | 80 | 0 | 10.4 | 14.8 | 0.00 | 0.03 | 0.03 | 100 | 1008.3 |
| 20260508051142 | 80 | 0 | 7.8 | 14.8 | 0.00 | 0.03 | 0.03 | 100 | 1008.3 |
| 20260508050638 | 80 | 0 | 7.8 | 13.0 | 0.00 | 0.03 | 0.03 | 100 | 1008.3 |
| 20260508050136 | 80 | 0 | 7.8 | 13.0 | 0.00 | 0.03 | 0.03 | 100 | 1008.3 |
| 20260508045631 | 80 | 0 | 7.8 | 13.0 | 0.00 | 0.03 | 0.03 | 100 | 1008.3 |
| 20260508045130 | 80 | 0 | 9.6 | 18.2 | 0.00 | 0.03 | 0.03 | 100 | 1008.3 |
| 20260508044626 | 80 | 0 | 8.7 | 13.0 | 0.00 | 0.03 | 0.03 | 100 | 1008.3 |
| 20260508044123 | 80 | 0 | 8.7 | 13.9 | 0.00 | 0.03 | 0.03 | 100 | 1008.3 |
| 20260508043619 | 80 | 0 | 10.4 | 15.6 | 0.00 | 0.03 | 0.03 | 100 | 1008.3 |
| 20260508043117 | 80 | 0 | 10.4 | 16.5 | 0.00 | 0.03 | 0.03 | 100 | 1008.3 |
| 20260508042614 | 80 | 0 | 8.7 | 13.0 | 0.00 | 0.03 | 0.03 | 100 | 1008.3 |
| 20260508042111 | 80 | 0 | 11.3 | 15.6 | 0.00 | 0.03 | 0.03 | 100 | 1008.3 |
| 20260508041607 | 80 | 0 | 10.4 | 14.8 | 0.00 | 0.03 | 0.03 | 100 | 1008.3 |
| 20260508041103 | 80 | 0 | 11.3 | 15.6 | 0.00 | 0.03 | 0.03 | 100 | 1008.3 |
| 20260508040600 | 80 | 0 | 11.3 | 15.6 | 0.00 | 0.03 | 0.03 | 100 | 1008.3 |
| 20260508040058 | 80 | 0 | 11.3 | 16.5 | 0.00 | 0.03 | 0.03 | 100 | 1008.3 |
| 20260508035555 | 80 | 0 | 11.3 | 15.6 | 0.00 | 0.03 | 0.03 | 100 | 1008.6 |
| 20260508035052 | 80 | 0 | 9.6 | 14.8 | 0.00 | 0.03 | 0.03 | 100 | 1008.6 |
| 20260508034549 | 80 | 0 | 7.8 | 14.8 | 0.00 | 0.03 | 0.03 | 100 | 1008.6 |
| 20260508034046 | 80 | 0 | 9.6 | 14.8 | 0.00 | 0.03 | 0.03 | 100 | 1008.6 |
| 20260508033544 | 80 | 0 | 9.6 | 15.6 | 0.00 | 0.03 | 0.03 | 100 | 1008.6 |
| 20260508033042 | 80 | 0 | 7.8 | 12.2 | 0.00 | 0.03 | 0.03 | 100 | 1008.6 |
| 20260508032538 | 80 | 0 | 9.6 | 13.9 | 0.00 | 0.03 | 0.03 | 100 | 1008.6 |
| 20260508032036 | 80 | 0 | 9.6 | 14.8 | 0.00 | 0.03 | 0.03 | 100 | 1008.6 |
| 20260508031533 | 80 | 0 | 10.4 | 16.5 | 0.00 | 0.03 | 0.03 | 100 | 1008.6 |
| 20260508031028 | 80 | 0 | 9.6 | 16.5 | 0.00 | 0.03 | 0.03 | 100 | 1009.0 |
| 20260508030525 | 80 | 0 | 10.4 | 16.5 | 0.00 | 0.03 | 0.03 | 100 | 1009.0 |
| 20260508030024 | 80 | 0 | 10.4 | 16.5 | 0.00 | 0.03 | 0.03 | 100 | 1009.0 |
| 20260508025519 | 80 | 0 | 9.6 | 13.9 | 0.00 | 0.03 | 0.03 | 100 | 1009.0 |
| 20260508025016 | 80 | 0 | 9.6 | 13.0 | 0.00 | 0.03 | 0.03 | 100 | 1009.0 |
| 20260508024512 | 80 | 0 | 10.4 | 14.8 | 0.00 | 0.03 | 0.03 | 100 | 1009.3 |
| 20260508024009 | 80 | 0 | 10.4 | 15.6 | 0.00 | 0.03 | 0.03 | 100 | 1009.3 |
| 20260508023506 | 80 | 0 | 8.7 | 14.8 | 0.00 | 0.03 | 0.03 | 100 | 1009.3 |
| 20260508023003 | 80 | 0 | 12.2 | 16.5 | 0.00 | 0.03 | 0.03 | 100 | 1009.6 |
| 20260508022459 | 80 | 0 | 11.3 | 16.5 | 0.00 | 0.03 | 0.03 | 100 | 1009.6 |
| 20260508021955 | 80 | 0 | 10.4 | 14.8 | 0.00 | 0.03 | 0.03 | 100 | 1009.6 |
| 20260508021452 | 80 | 0 | 10.4 | 14.8 | 0.00 | 0.03 | 0.03 | 100 | 1009.6 |
| 20260508020948 | 80 | 0 | 9.6 | 14.8 | 0.00 | 0.03 | 0.03 | 100 | 1009.6 |
| 20260508020446 | 80 | 0 | 9.6 | 13.0 | 0.00 | 0.03 | 0.03 | 100 | 1009.6 |
| 20260508015942 | 80 | 0 | 9.6 | 13.0 | 0.00 | 0.03 | 0.03 | 100 | 1010.0 |
| 20260508015441 | 80 | 0 | 8.7 | 13.0 | 0.00 | 0.03 | 0.03 | 100 | 1010.0 |
| 20260508014937 | 80 | 0 | 7.8 | 12.2 | 0.00 | 0.03 | 0.03 | 100 | 1010.3 |
| 20260508014434 | 80 | 0 | 7.8 | 13.0 | 0.00 | 0.03 | 0.03 | 100 | 1010.3 |
| 20260508013929 | 80 | 0 | 7.8 | 12.2 | 0.00 | 0.03 | 0.03 | 100 | 1010.3 |
| 20260508013426 | 80 | 0 | 9.6 | 13.0 | 0.00 | 0.03 | 0.03 | 100 | 1010.3 |
| 20260508012923 | 80 | 0 | 8.7 | 13.0 | 0.00 | 0.03 | 0.03 | 100 | 1010.3 |
| 20260508012420 | 80 | 0 | 9.6 | 13.9 | 0.00 | 0.03 | 0.03 | 100 | 1010.3 |
| 20260508011918 | 80 | 0 | 9.6 | 15.6 | 0.00 | 0.03 | 0.03 | 100 | 1010.3 |
| 20260508011416 | 80 | 0 | 9.6 | 13.9 | 0.00 | 0.03 | 0.03 | 100 | 1010.3 |
| 20260508010912 | 80 | 0 | 9.6 | 16.5 | 0.00 | 0.03 | 0.03 | 100 | 1010.7 |
| 20260508010410 | 80 | 0 | 9.6 | 13.9 | 0.00 | 0.03 | 0.03 | 100 | 1010.7 |
| 20260508005907 | 80 | 0 | 9.6 | 14.8 | 0.00 | 0.03 | 0.03 | 100 | 1010.7 |
| 20260508005403 | 80 | 0 | 8.7 | 13.0 | 0.00 | 0.03 | 0.03 | 100 | 1010.7 |
| 20260508004900 | 80 | 0 | 8.7 | 13.0 | 0.00 | 0.03 | 0.03 | 100 | 1010.7 |
| 20260508004356 | 80 | 0 | 11.3 | 15.6 | 0.00 | 0.03 | 0.03 | 100 | 1010.7 |
| 20260508003853 | 80 | 0 | 9.6 | 14.8 | 0.00 | 0.03 | 0.03 | 100 | 1011.0 |
| 20260508003349 | 80 | 0 | 10.4 | 14.8 | 0.00 | 0.03 | 0.03 | 100 | 1011.0 |
| 20260508002847 | 80 | 0 | 10.4 | 16.5 | 0.00 | 0.03 | 0.03 | 100 | 1011.0 |
| 20260508002343 | 80 | 0 | 9.6 | 13.9 | 0.00 | 0.03 | 0.03 | 100 | 1011.0 |
| 20260508001840 | 80 | 0 | 9.6 | 14.8 | 0.00 | 0.03 | 0.03 | 100 | 1011.3 |
| 20260508001336 | 80 | 0 | 9.6 | 13.0 | 0.00 | 0.03 | 0.03 | 100 | 1011.3 |
| 20260508000832 | 80 | 0 | 8.7 | 15.6 | 0.00 | 0.03 | 0.03 | 100 | 1011.3 |
| 20260508000328 | 80 | 0 | 10.4 | 14.8 | 0.00 | 0.03 | 0.03 | 100 | 1011.3 |
| 20260507235825 | 80 | 0 | 9.6 | 13.9 | 0.00 | 0.03 | 0.03 | 100 | 1011.3 |
| 20260507235323 | 80 | 0 | 7.8 | 12.2 | 0.00 | 0.03 | 0.03 | 100 | 1011.7 |
| 20260507234820 | 80 | 0 | 9.6 | 13.0 | 0.00 | 0.03 | 0.03 | 100 | 1011.7 |
| 20260507234316 | 80 | 0 | 9.6 | 13.9 | 0.00 | 0.03 | 0.03 | 100 | 1011.7 |
| 20260507233813 | 80 | 0 | 9.6 | 13.9 | 0.00 | 0.03 | 0.03 | 100 | 1011.7 |
| 20260507233311 | 80 | 0 | 9.6 | 15.6 | 0.00 | 0.03 | 0.03 | 100 | 1011.7 |
| 20260507232809 | 80 | 0 | 9.6 | 12.2 | 0.00 | 0.03 | 0.03 | 100 | 1011.7 |
| 20260507232306 | 80 | 0 | 8.7 | 13.9 | 0.00 | 0.03 | 0.03 | 100 | 1011.7 |
| 20260507231801 | 80 | 0 | 8.7 | 13.0 | 0.00 | 0.03 | 0.03 | 100 | 1011.7 |
| 20260507231258 | 80 | 0 | 7.8 | 12.2 | 0.00 | 0.03 | 0.03 | 100 | 1011.7 |
| 20260507230754 | 80 | 0 | 8.7 | 12.2 | 0.00 | 0.03 | 0.03 | 100 | 1011.7 |
| 20260507230252 | 80 | 0 | 9.6 | 13.0 | 0.00 | 0.03 | 0.03 | 100 | 1011.7 |
| 20260507225752 | 80 | 0 | 9.6 | 13.9 | 0.00 | 0.03 | 0.03 | 100 | 1011.7 |
| 20260507225248 | 80 | 0 | 10.4 | 13.9 | 0.00 | 0.03 | 0.03 | 100 | 1011.7 |
| 20260507224744 | 80 | 0 | 10.4 | 14.8 | 0.00 | 0.03 | 0.03 | 100 | 1011.7 |
| 20260507224241 | 80 | 0 | 11.3 | 15.6 | 0.00 | 0.03 | 0.03 | 100 | 1011.7 |
| 20260507223737 | 80 | 0 | 9.6 | 14.8 | 0.00 | 0.03 | 0.03 | 100 | 1011.7 |
| 20260507223234 | 80 | 0 | 7.8 | 14.8 | 0.00 | 0.03 | 0.03 | 100 | 1011.7 |
| 20260507222731 | 80 | 0 | 9.6 | 14.8 | 0.00 | 0.03 | 0.03 | 100 | 1011.7 |
| 20260507222227 | 80 | 0 | 8.7 | 13.9 | 0.00 | 0.03 | 0.03 | 100 | 1011.7 |
| 20260507221724 | 80 | 0 | 10.4 | 13.9 | 0.00 | 0.03 | 0.03 | 100 | 1011.7 |
| 20260507221220 | 80 | 0 | 8.7 | 13.0 | 0.00 | 0.03 | 0.03 | 100 | 1011.7 |
| 20260507220717 | 80 | 0 | 7.0 | 11.3 | 0.00 | 0.03 | 0.03 | 100 | 1011.7 |
| 20260507220215 | 80 | 0 | 9.6 | 14.8 | 0.00 | 0.03 | 0.03 | 100 | 1011.7 |
| 20260507215711 | 80 | 0 | 7.8 | 11.3 | 0.00 | 0.03 | 0.03 | 100 | 1011.7 |
| 20260507215209 | 80 | 0 | 8.7 | 12.2 | 0.00 | 0.03 | 0.03 | 100 | 1011.3 |
| 20260507214706 | 80 | 0 | 9.6 | 14.8 | 0.00 | 0.03 | 0.03 | 100 | 1011.3 |
| 20260507214202 | 80 | 0 | 9.6 | 13.9 | 0.00 | 0.03 | 0.03 | 100 | 1011.7 |
| 20260507213658 | 80 | 0 | 9.6 | 15.6 | 0.00 | 0.03 | 0.03 | 100 | 1011.7 |
| 20260507213155 | 80 | 0 | 8.7 | 13.9 | 0.00 | 0.03 | 0.03 | 100 | 1011.7 |
| 20260507212651 | 80 | 0 | 9.6 | 13.9 | 0.00 | 0.03 | 0.03 | 100 | 1011.3 |
| 20260507212148 | 80 | 0 | 7.8 | 13.0 | 0.00 | 0.03 | 0.03 | 100 | 1011.3 |
| 20260507211645 | 80 | 0 | 7.8 | 12.2 | 0.00 | 0.03 | 0.03 | 100 | 1011.3 |
| 20260507211140 | 80 | 0 | 7.8 | 14.8 | 0.00 | 0.03 | 0.03 | 100 | 1011.0 |
| 20260507210639 | 80 | 0 | 7.8 | 12.2 | 0.00 | 0.03 | 0.03 | 100 | 1011.0 |
| 20260507210135 | 80 | 0 | 7.8 | 11.3 | 0.00 | 0.03 | 0.03 | 100 | 1011.0 |
| 20260507205632 | 80 | 0 | 7.8 | 11.3 | 0.00 | 0.03 | 0.03 | 100 | 1011.0 |
| 20260507205128 | 80 | 0 | 8.7 | 11.3 | 0.00 | 0.03 | 0.03 | 100 | 1011.0 |
| 20260507204624 | 80 | 0 | 7.0 | 10.4 | 0.00 | 0.03 | 0.03 | 100 | 1011.0 |
| 20260507204122 | 80 | 0 | 7.8 | 10.4 | 0.00 | 0.03 | 0.03 | 100 | 1011.0 |
| 20260507203620 | 80 | 0 | 7.0 | 11.3 | 0.00 | 0.03 | 0.03 | 100 | 1010.7 |
| 20260507203117 | 80 | 0 | 7.8 | 11.3 | 0.00 | 0.03 | 0.03 | 100 | 1010.7 |
| 20260507202613 | 80 | 0 | 6.1 | 13.0 | 0.00 | 0.03 | 0.03 | 100 | 1010.7 |
| 20260507202109 | 80 | 0 | 6.1 | 12.2 | 0.00 | 0.03 | 0.03 | 100 | 1010.7 |
| 20260507201604 | 80 | 0 | 5.2 | 8.7 | 0.00 | 0.03 | 0.03 | 100 | 1010.7 |
| 20260507201102 | 80 | 0 | 8.7 | 13.9 | 0.00 | 0.03 | 0.03 | 100 | 1010.7 |
| 20260507200557 | 80 | 0 | 5.2 | 11.3 | 0.00 | 0.03 | 0.03 | 100 | 1010.7 |
| 20260507200053 | 80 | 0 | 6.1 | 9.6 | 0.00 | 0.03 | 0.03 | 100 | 1010.3 |
| 20260507195551 | 80 | 0 | 7.8 | 12.2 | 0.00 | 0.03 | 0.03 | 100 | 1010.3 |
| 20260507195048 | 80 | 0 | 7.8 | 10.4 | 0.00 | 0.03 | 0.03 | 100 | 1010.3 |
| 20260507194544 | 80 | 0 | 4.3 | 9.6 | 0.00 | 0.03 | 0.03 | 100 | 1010.3 |
| 20260507194040 | 80 | 0 | 7.0 | 9.6 | 0.00 | 0.03 | 0.03 | 100 | 1010.3 |
| 20260507193537 | 80 | 0 | 7.8 | 12.2 | 0.00 | 0.03 | 0.03 | 100 | 1010.3 |
| 20260507193034 | 80 | 0 | 7.0 | 12.2 | 0.00 | 0.03 | 0.03 | 100 | 1010.3 |
| 20260507192530 | 80 | 0 | 6.1 | 9.6 | 0.00 | 0.03 | 0.03 | 100 | 1010.3 |
| 20260507192027 | 80 | 0 | 7.8 | 13.0 | 0.00 | 0.03 | 0.03 | 100 | 1010.3 |
| 20260507191523 | 80 | 0 | 5.2 | 9.6 | 0.00 | 0.03 | 0.03 | 100 | 1010.0 |
| 20260507191020 | 80 | 0 | 2.6 | 6.1 | 0.00 | 0.03 | 0.03 | 100 | 1010.0 |
| 20260507190517 | 80 | 0 | 2.6 | 5.2 | 0.00 | 0.03 | 0.03 | 100 | 1010.0 |
| 20260507190016 | 80 | 0 | 4.3 | 8.7 | 0.00 | 0.03 | 0.03 | 100 | 1010.0 |
| 20260507185514 | 80 | 0 | 4.3 | 7.0 | 0.00 | 0.03 | 0.03 | 100 | 1010.0 |